FENGYUN 1C DEB, 30938

Orbit data source: Space-Track

FENGYUN 1C DEB, 30938 is space debris in SSO originally from a launch on Mon, 10 May 1999 UTC launched from the Taiyaun Space Center, China (TSC). Fengyun 1C debris stems from the Chinese weather satellite Fengyun-1C, which was intentionally destroyed by a Chinese anti-satellite missile in 2007. This event dramatically increased the amount of space debris, with thousands of trackable fragments posing hazards to satellites and human spaceflight. The Fengyun 1C debris cloud has become a focal point in discussions about space sustainability and the need for international regulations to prevent the creation of new debris.

Loading next visibility...
Identifier
30938, 1999-025BAC
Orbit
SSO
Country
Flag of CNCN / PRC
Related business
Manufacturer
Unknown
Mission
Spacecraft
Bus & Motor
Unknown
Mass
Unknown
Launch date (UTC)
1999-05-10 (27 years ago)
Launch vehicle
Unknown
Launch site
Taiyaun Space Center, China (TSC)
Object type
Payload
Rocket body
Debris
Shape & HBR
Unknown shape, 0.1 m
Radar Cross Section
Small (<0.1 m²)

Expand to show TLE details & history
Last TLE update: 10 hours ago

TLE from 10 hours ago
0 FENGYUN 1C DEB
1 30938U 99025BAC 26071.33446294  .00000843  00000-0  41165-3 0  9994
2 30938  98.5884  87.1918 0047339  83.9132 289.1184 14.19977524983915
Epoch: 2026-03-12T08:01Z
TLE epoch observation values (Epoch: 2026-03-12T08:01:37.598Z)
Latitude
12.33507°
Longitude
154.91672°
Altitude
816.563 km
Speed
7.452 km/s
True Right ascension
05h 41m 14s
True Declination
12° 15' 51"
Sunlit
Object was in daylight at epoch
Visualization orbit readout
Latitude
Unknown
Longitude
Unknown
Altitude
Unknown
Speed
Unknown
Apparent Right ascension
Unknown
Apparent Declination
Unknown
Sunlit
N/A
Visualization observer readout
Local Sidereal Time
22:50:10
Azimuth
Unknown
Elevation
Unknown
Doppler factor
Unknown
Orbital elements
Apogee altitude
856.669 km
Perigee altitude
788.494 km
Semi-major axis
7,200.719 km
Eccentricity
0.00473
Inclination
98.5884°
RAAN
87.1918°
Arg. of periapsis
83.9132°
True anomaly
288.60487°
Mean anomaly
289.1184°
Eccentric anomaly
288.86173°
Mean motion
3.55205 °/min
Orbital period
101.35 mins
BSTAR
0.00041165
Loading maneuver chart data...
Computing Atmospheric mass density...

Documentation

Showing up to 5 results
|